Location: Moscow-La Grange Division (historical)
(35.0618°N, 89.3631°W)
Time: 18:46:42
(UTC+00:00)

Daily predictions for brighter satellites

Satellite Brightness Start Highest point End
(mag) Time Altitude Azimuth Time Altitude Azimuth Time Altitude Azimuth
Lacrosse 5 rocket 1.8 12:01:31 10° NNW 12:04:41 41° NE 12:07:47 10° ESE
Okean 1 Rocket 3.3 12:00:41 10° NNW 12:04:47 45° W 12:08:52 10° SSW
Lacrosse 4 Rocket 2.5 12:01:22 10° N 12:05:06 40° ENE 12:08:46 10° SE
Hubble Space Telescope 2.5 12:05:44 10° SW 12:08:56 26° S 12:12:08 10° ESE
Sich 1 Rocket 4.1 12:05:17 10° NNW 12:09:29 40° W 12:13:38 10° SSW
Helios 1A Rocket 3.8 12:06:55 10° SSW 12:09:32 21° W 12:12:11 10° NW
ATLAS 3B R/B 4.3 12:04:31 10° W 12:09:37 19° NW 12:14:51 10° N
Cosmos 968 Rocket 4.4 12:05:18 10° NW 12:09:44 28° W 12:14:09 10° SSW
CENTAUR R/B 3.6 12:03:05 10° NW 12:11:43 57° WSW 12:20:53 10° S
Cosmos 44 Rocket 3.6 23:09:49 10° SW 23:14:30 71° WNW 23:19:22 10° NNE
USA 215 3.9 23:10:44 10° E 23:16:32 36° NE 23:22:22 10° NNW
OAO 2 Rocket 3.3 23:12:37 10° W 23:17:37 90° SSE 23:22:43 10° E
BREEZE-M DEB (TANK) 3.8 23:16:03 10° W 23:18:01 25° NNW 23:21:28 10° NE
Cosmos 1833 Rocket 3.1 23:15:11 10° NNW 23:20:49 70° WSW 23:26:24 10° S
RESURS DK-1 2.9 23:19:32 10° N 23:23:11 33° ENE 23:26:47 10° SE
SAR-Lupe-3 3.6 23:21:05 10° NNE 23:23:42 70° E 23:26:17 10° S
Landsat 7 4.0 23:19:39 10° SSE 23:24:06 49° ENE 23:28:35 10° N
Cosmos 1400 Rocket 3.7 23:21:33 10° SSE 23:24:42 25° E 23:27:50 10° NE
Cosmos 540 Rocket 3.7 23:22:25 10° N 23:27:19 44° ENE 23:32:09 10° SE
SJ-12 3.9 23:23:59 10° SSE 23:27:38 48° ENE 23:31:18 10° N
Helios 1A Rocket 3.8 23:31:34 10° NE 23:34:11 21° E 23:36:46 10° SSE
DELTA 2 R/B (1) 3.8 23:30:09 10° SW 23:35:35 58° SSE 23:40:20 14° ENE
Cosmos 1763 Rocket 3.4 23:31:29 10° NNW 23:36:38 67° ENE 23:41:41 10° SSE
Cosmos 304 Rocket 4.0 23:33:31 10° S 23:37:59 45° ESE 23:42:31 10° NNE
Centaur AC-119 4.3 23:35:16 10° WSW 23:39:36 35° S 23:45:44 10° ESE
Cosmos 371 Rocket 3.5 23:35:51 10° S 23:40:24 47° ESE 23:45:01 10° NNE
Okean 2 Rocket 3.5 23:38:25 10° SSE 23:42:30 39° E 23:46:35 10° NNE
Cosmos 1536 Rocket 4.3 23:39:58 10° NNE 23:43:53 30° ENE 23:47:45 10° SE
